WZZ6DB EDDH-LBPD

Flight info

Callsign WZZ6DB
Flight time N/A
Altitude 39000
Route AMLUH2G/33 AMLUH M852 POVEL Y800 TADUV Z21 DRN T620 PIKIB/N0428F380 Z36 MAREM/N0426F390 DCT PISAM DCT PESAT DCT TONDO DCT NISVA DCT RUMEN
Aircraft A320/M-SDE2E3FGHIRWXY/LB1

Departure

Time 2026-04-25 16:17
Airport Hamburg Helmut Schmidt Airport (EDDH)

Arrival

Time N/A
Airport Plovdiv International Airport (LBPD)
Time Latitude Longitude Altitude Speed Heading
2026-04-25 15:53 53.62646 10.00374 42 ft 0 kts 81°
2026-04-25 16:13 53.62646 10.00373 42 ft 2 kts 83°
2026-04-25 16:13 53.62648 10.00352 42 ft 2 kts 136°
2026-04-25 16:14 53.62656 10.00342 41 ft 0 kts 176°
2026-04-25 16:15 53.62647 10.00339 42 ft 4 kts 196°
2026-04-25 16:15 53.62605 10.00289 42 ft 11 kts 221°
2026-04-25 16:15 53.62561 10.00179 42 ft 0 kts 243°
2026-04-25 16:16 53.62555 10.00158 42 ft 6 kts 243°
2026-04-25 16:16 53.62545 10.00072 42 ft 8 kts 284°
2026-04-25 16:16 53.62595 9.99980 43 ft 28 kts 326°
2026-04-25 16:16 53.62997 9.99618 47 ft 99 kts 333°
2026-04-25 16:17 53.63776 9.98944 59 ft 149 kts 332°
2026-04-25 16:17 53.64759 9.98269 508 ft 161 kts 334°
2026-04-25 16:17 53.65886 9.97609 982 ft 181 kts 337°
2026-04-25 16:17 53.67083 9.96710 1534 ft 198 kts 322°
2026-04-25 16:18 53.68178 9.95252 2175 ft 204 kts 323°
2026-04-25 16:18 53.68579 9.94874 2516 ft 201 kts 334°
2026-04-25 16:18 53.70781 9.94503 4224 ft 192 kts 355°
2026-04-25 16:18 53.72145 9.94660 4974 ft 202 kts
2026-04-25 16:19 53.73427 9.95854 5846 ft 225 kts 37°
2026-04-25 16:19 53.74234 9.98279 6692 ft 251 kts 66°
2026-04-25 16:19 53.74497 10.01274 7563 ft 267 kts 88°
2026-04-25 16:20 53.73067 10.07214 9243 ft 290 kts 121°
2026-04-25 16:20 53.71994 10.10192 9734 ft 312 kts 120°
2026-04-25 16:20 53.69648 10.17057 10641 ft 357 kts 122°
2026-04-25 16:21 53.67932 10.20223 10988 ft 378 kts 146°
2026-04-25 16:21 53.65640 10.22199 11613 ft 380 kts 166°
2026-04-25 16:21 53.63093 10.23404 12508 ft 380 kts 171°
2026-04-25 16:21 53.60495 10.24432 13378 ft 384 kts 172°
2026-04-25 16:22 53.57883 10.25480 14192 ft 389 kts 171°
2026-04-25 16:22 53.55237 10.26604 14942 ft 393 kts 170°
2026-04-25 16:22 53.52573 10.27785 15687 ft 398 kts 169°
2026-04-25 16:22 53.49875 10.29010 16420 ft 403 kts 169°
2026-04-25 16:23 53.47182 10.30243 17143 ft 407 kts 169°
2026-04-25 16:23 53.44433 10.31502 17863 ft 411 kts 169°
2026-04-25 16:23 53.41649 10.32774 18544 ft 416 kts 169°
2026-04-25 16:23 53.38834 10.34050 19163 ft 420 kts 169°
2026-04-25 16:24 53.36010 10.35323 19796 ft 423 kts 169°
2026-04-25 16:24 53.33147 10.36611 20432 ft 426 kts 169°
2026-04-25 16:24 53.30315 10.37883 21043 ft 430 kts 169°
2026-04-25 16:24 53.27406 10.39188 21655 ft 433 kts 170°
2026-04-25 16:25 53.24521 10.40481 22265 ft 437 kts 170°
2026-04-25 16:25 53.23525 10.40927 22468 ft 438 kts 170°
2026-04-25 16:25 53.18597 10.43129 23492 ft 443 kts 170°
2026-04-25 16:25 53.15609 10.44461 24007 ft 447 kts 170°
2026-04-25 16:26 53.12586 10.45807 24512 ft 450 kts 170°
2026-04-25 16:26 53.09551 10.47157 25028 ft 452 kts 169°
2026-04-25 16:26 53.06505 10.48510 25512 ft 455 kts 169°
2026-04-25 16:26 53.03469 10.49856 26003 ft 458 kts 169°
2026-04-25 16:27 53.00478 10.51181 26441 ft 460 kts 169°
2026-04-25 16:27 52.97371 10.52554 26899 ft 463 kts 169°
2026-04-25 16:27 52.94241 10.53936 27357 ft 465 kts 169°
2026-04-25 16:27 52.91093 10.55324 27805 ft 468 kts 169°
2026-04-25 16:28 52.87931 10.56716 28215 ft 471 kts 169°
2026-04-25 16:28 52.84764 10.58108 28652 ft 473 kts 169°
2026-04-25 16:28 52.81567 10.59521 29052 ft 475 kts 169°
2026-04-25 16:28 52.78360 10.60953 29425 ft 478 kts 169°
2026-04-25 16:29 52.75153 10.62388 29800 ft 480 kts 169°
2026-04-25 16:29 52.71920 10.63830 30182 ft 482 kts 169°
2026-04-25 16:29 52.68702 10.65262 30510 ft 484 kts 169°
2026-04-25 16:29 52.65484 10.66691 30861 ft 486 kts 169°
2026-04-25 16:30 52.64387 10.67177 30966 ft 486 kts 169°
2026-04-25 16:30 52.58929 10.69592 31654 ft 486 kts 169°
2026-04-25 16:30 52.55670 10.71032 32134 ft 484 kts 169°
2026-04-25 16:30 52.52420 10.72466 32580 ft 483 kts 169°
2026-04-25 16:31 52.49164 10.73900 33019 ft 481 kts 169°
2026-04-25 16:31 52.45974 10.75302 33464 ft 479 kts 169°
2026-04-25 16:31 52.42757 10.76714 33881 ft 478 kts 169°
2026-04-25 16:31 52.39534 10.78126 34251 ft 477 kts 169°
2026-04-25 16:32 52.36313 10.79370 34587 ft 473 kts 175°
2026-04-25 16:32 52.33068 10.80031 34893 ft 468 kts 181°
2026-04-25 16:32 52.29852 10.80458 35197 ft 467 kts 181°
2026-04-25 16:32 52.26617 10.80889 35495 ft 466 kts 180°
2026-04-25 16:33 52.23369 10.81329 35784 ft 466 kts 180°
2026-04-25 16:33 52.20140 10.81781 36085 ft 466 kts 179°
2026-04-25 16:33 52.16945 10.82851 36330 ft 473 kts 166°
2026-04-25 16:33 52.13934 10.84964 36559 ft 481 kts 154°
2026-04-25 16:34 52.11185 10.88086 36786 ft 486 kts 141°
2026-04-25 16:34 52.08852 10.92089 36981 ft 490 kts 128°
2026-04-25 16:34 52.06949 10.96708 37198 ft 492 kts 122°
2026-04-25 16:34 52.05201 11.01484 37427 ft 491 kts 121°
2026-04-25 16:35 52.04027 11.04700 37584 ft 491 kts 122°
2026-04-25 16:35 52.02324 11.09255 37803 ft 491 kts 123°
2026-04-25 16:35 52.00518 11.13943 38022 ft 490 kts 123°
2026-04-25 16:35 51.98680 11.18620 38236 ft 490 kts 124°
2026-04-25 16:36 51.96828 11.23281 38436 ft 490 kts 124°
2026-04-25 16:36 51.95603 11.26351 38554 ft 489 kts 124°
2026-04-25 16:36 51.93130 11.32532 38804 ft 489 kts 124°
2026-04-25 16:36 51.91277 11.37155 38973 ft 488 kts 124°
2026-04-25 16:37 51.89427 11.41765 39015 ft 488 kts 124°
2026-04-25 16:37 51.85750 11.50904 39018 ft 486 kts 124°
2026-04-25 16:38 51.82036 11.60103 39019 ft 487 kts 124°
2026-04-25 16:38 51.78351 11.69193 39017 ft 486 kts 124°
2026-04-25 16:39 51.74630 11.78334 39015 ft 486 kts 124°
2026-04-25 16:39 51.70906 11.87453 39015 ft 486 kts 124°
2026-04-25 16:40 51.67272 11.96323 39017 ft 486 kts 124°
2026-04-25 16:40 51.63576 12.05311 39013 ft 486 kts 125°
2026-04-25 16:41 51.59862 12.14314 39014 ft 486 kts 125°
2026-04-25 16:41 51.54243 12.27877 39015 ft 486 kts 125°
2026-04-25 16:42 51.50475 12.36932 39009 ft 486 kts 125°
2026-04-25 16:42 51.46727 12.45908 39014 ft 486 kts 125°
2026-04-25 16:43 51.42950 12.54920 39008 ft 487 kts 125°
2026-04-25 16:43 51.39320 12.64099 39008 ft 487 kts 122°
2026-04-25 16:44 51.35779 12.73349 39007 ft 487 kts 122°
2026-04-25 16:44 51.32220 12.82512 39015 ft 487 kts 123°
2026-04-25 16:45 51.28652 12.91625 39021 ft 488 kts 123°
2026-04-25 16:45 51.25046 13.00821 39019 ft 488 kts 123°
2026-04-25 16:46 51.21434 13.10010 38996 ft 488 kts 123°
2026-04-25 16:46 51.18437 13.17609 39007 ft 486 kts 123°
2026-04-25 16:47 51.14230 13.28214 38996 ft 486 kts 123°
2026-04-25 16:47 51.10592 13.37322 38995 ft 486 kts 123°
2026-04-25 16:48 51.06988 13.46335 38989 ft 486 kts 123°
2026-04-25 16:48 51.03222 13.55225 38985 ft 484 kts 131°
2026-04-25 16:49 50.98358 13.62522 38982 ft 478 kts 147°
2026-04-25 16:49 50.92658 13.67689 38978 ft 471 kts 163°
2026-04-25 16:50 50.89524 13.69097 38991 ft 464 kts 176°
2026-04-25 16:50 50.86322 13.69389 38988 ft 459 kts 189°
2026-04-25 16:50 50.83202 13.68581 38991 ft 450 kts 202°
2026-04-25 16:50 50.80235 13.67056 38990 ft 448 kts 204°
2026-04-25 16:51 50.74071 13.65405 38990 ft 461 kts 183°
2026-04-25 16:51 50.70858 13.65928 38991 ft 467 kts 172°
2026-04-25 16:51 50.68718 13.66796 38992 ft 471 kts 165°
2026-04-25 16:52 50.64776 13.69620 38995 ft 476 kts 150°
2026-04-25 16:52 50.61985 13.72450 38983 ft 477 kts 149°
2026-04-25 16:52 50.56402 13.78093 38985 ft 476 kts 150°
2026-04-25 16:53 50.48010 13.86484 38975 ft 476 kts 150°
2026-04-25 16:54 50.42453 13.92017 38976 ft 476 kts 150°
2026-04-25 16:54 50.36838 13.97593 38969 ft 476 kts 149°
2026-04-25 16:55 50.31275 14.03102 38978 ft 476 kts 149°
2026-04-25 16:55 50.25667 14.08640 38983 ft 476 kts 149°
2026-04-25 16:56 50.20052 14.14169 38990 ft 477 kts 149°
2026-04-25 16:56 50.14420 14.19699 38997 ft 477 kts 149°
2026-04-25 16:57 50.08792 14.25210 38997 ft 477 kts 149°
2026-04-25 16:57 50.03212 14.30659 38999 ft 478 kts 149°
2026-04-25 16:58 49.97572 14.36151 39000 ft 478 kts 149°
2026-04-25 16:58 49.91953 14.41607 38999 ft 478 kts 149°
2026-04-25 16:59 49.86316 14.47066 38997 ft 478 kts 149°
2026-04-25 16:59 49.80679 14.52509 38991 ft 476 kts 149°
2026-04-25 17:00 49.75054 14.57925 38989 ft 476 kts 149°
2026-04-25 17:00 49.69419 14.63336 38987 ft 476 kts 149°
2026-04-25 17:01 49.63831 14.68687 38987 ft 476 kts 149°
2026-04-25 17:01 49.58232 14.74034 38982 ft 476 kts 149°
2026-04-25 17:02 49.52601 14.79398 38979 ft 475 kts 149°
2026-04-25 17:02 49.46972 14.84743 38983 ft 475 kts 149°
2026-04-25 17:03 49.41335 14.90083 38979 ft 475 kts 148°
2026-04-25 17:03 49.35732 14.95378 38969 ft 475 kts 148°
2026-04-25 17:04 49.30101 15.00684 38978 ft 474 kts 148°
2026-04-25 17:04 49.24463 15.05982 38980 ft 475 kts 148°
2026-04-25 17:05 49.18856 15.11235 38976 ft 475 kts 148°
2026-04-25 17:05 49.10384 15.19146 38979 ft 475 kts 148°
2026-04-25 17:06 49.04739 15.24399 38976 ft 475 kts 148°
2026-04-25 17:06 48.99125 15.29610 38982 ft 475 kts 148°
2026-04-25 17:07 48.93481 15.34835 38986 ft 475 kts 148°
2026-04-25 17:07 48.88064 15.40550 38980 ft 473 kts 138°
2026-04-25 17:08 48.83276 15.47431 38979 ft 473 kts 135°
2026-04-25 17:08 48.78534 15.54375 38975 ft 473 kts 135°
2026-04-25 17:09 48.73879 15.61142 38969 ft 473 kts 135°
2026-04-25 17:09 48.69112 15.68041 38966 ft 473 kts 135°
2026-04-25 17:10 48.64362 15.74896 38969 ft 473 kts 135°
2026-04-25 17:10 48.59629 15.81710 38970 ft 472 kts 135°
2026-04-25 17:11 48.54868 15.88545 38968 ft 472 kts 135°
2026-04-25 17:11 48.50105 15.95364 38965 ft 472 kts 135°
2026-04-25 17:12 48.45320 16.02195 38957 ft 472 kts 135°
2026-04-25 17:12 48.40548 16.08990 38965 ft 472 kts 135°
2026-04-25 17:13 48.37384 16.13485 38964 ft 472 kts 135°
2026-04-25 17:13 48.31027 16.22492 38967 ft 471 kts 135°
2026-04-25 17:14 48.26253 16.29235 38969 ft 471 kts 135°
2026-04-25 17:14 48.21469 16.35975 38971 ft 471 kts 135°
2026-04-25 17:15 48.16691 16.42687 38971 ft 471 kts 135°
2026-04-25 17:15 48.11902 16.49396 38968 ft 470 kts 135°
2026-04-25 17:16 48.07149 16.56039 38968 ft 470 kts 135°
2026-04-25 17:16 48.02363 16.62708 38969 ft 470 kts 135°
2026-04-25 17:17 47.97576 16.69362 38966 ft 470 kts 135°
2026-04-25 17:17 47.92808 16.75971 38963 ft 469 kts 135°
2026-04-25 17:18 47.88029 16.82614 38957 ft 469 kts 135°
2026-04-25 17:18 47.83252 16.89197 38948 ft 469 kts 136°
2026-04-25 17:19 47.78456 16.95762 38947 ft 469 kts 136°
2026-04-25 17:19 47.73650 17.02347 38945 ft 469 kts 136°
2026-04-25 17:20 47.68892 17.08947 38946 ft 469 kts 134°
2026-04-25 17:20 47.64208 17.15745 38951 ft 469 kts 134°
2026-04-25 17:21 47.59565 17.22468 38954 ft 469 kts 134°
2026-04-25 17:21 47.55633 17.28117 38956 ft 469 kts 134°
2026-04-25 17:22 47.51725 17.33707 38967 ft 470 kts 134°
2026-04-25 17:22 47.45456 17.42649 38964 ft 470 kts 134°
2026-04-25 17:23 47.41542 17.48217 38966 ft 470 kts 132°
2026-04-25 17:23 47.36827 17.54938 38966 ft 471 kts 134°
2026-04-25 17:24 47.32092 17.61626 38970 ft 471 kts 135°
2026-04-25 17:24 47.27370 17.68286 38968 ft 472 kts 135°
2026-04-25 17:25 47.22621 17.74970 38975 ft 473 kts 135°
2026-04-25 17:25 47.17900 17.81601 38975 ft 473 kts 135°
2026-04-25 17:26 47.13130 17.88281 38966 ft 471 kts 135°
2026-04-25 17:26 47.08383 17.94911 38965 ft 471 kts 135°
2026-04-25 17:27 47.03631 18.01532 38964 ft 471 kts 135°
2026-04-25 17:27 46.99678 18.07026 38966 ft 471 kts 135°
2026-04-25 17:28 46.94144 18.14696 38969 ft 470 kts 135°
2026-04-25 17:28 46.89384 18.21276 38966 ft 470 kts 135°
2026-04-25 17:29 46.84654 18.27798 38964 ft 470 kts 135°
2026-04-25 17:29 46.79889 18.34351 38962 ft 470 kts 135°
2026-04-25 17:30 46.75121 18.40892 38961 ft 470 kts 136°
2026-04-25 17:30 46.70378 18.47383 38964 ft 470 kts 136°
2026-04-25 17:31 46.65603 18.53899 38964 ft 470 kts 136°
2026-04-25 17:31 46.60825 18.60405 38962 ft 470 kts 136°
2026-04-25 17:32 46.56039 18.66905 38969 ft 470 kts 136°
2026-04-25 17:32 46.51297 18.73327 38965 ft 470 kts 136°
2026-04-25 17:33 46.46494 18.79818 38965 ft 470 kts 136°
2026-04-25 17:33 46.41695 18.86287 38966 ft 470 kts 136°
2026-04-25 17:34 46.36922 18.92703 38965 ft 470 kts 136°
2026-04-25 17:34 46.32129 18.99130 38968 ft 471 kts 136°
2026-04-25 17:35 46.27335 19.05568 38972 ft 471 kts 137°
2026-04-25 17:35 46.22543 19.11941 38974 ft 471 kts 137°
2026-04-25 17:36 46.17715 19.18355 38972 ft 471 kts 137°
2026-04-25 17:36 46.12880 19.24774 38970 ft 471 kts 137°
2026-04-25 17:37 46.08063 19.31160 38974 ft 471 kts 137°
2026-04-25 17:37 46.03182 19.37422 38970 ft 471 kts 141°
2026-04-25 17:38 45.98981 19.42420 38973 ft 472 kts 140°
2026-04-25 17:38 45.93078 19.49502 38977 ft 472 kts 140°
2026-04-25 17:39 45.88035 19.55534 38978 ft 472 kts 140°
2026-04-25 17:39 45.83006 19.61526 38977 ft 472 kts 140°
2026-04-25 17:40 45.77930 19.67553 38974 ft 472 kts 141°
2026-04-25 17:40 45.72861 19.73556 38976 ft 473 kts 141°
2026-04-25 17:41 45.67861 19.79466 38979 ft 473 kts 141°
2026-04-25 17:41 45.62867 19.85351 38976 ft 473 kts 141°
2026-04-25 17:42 45.57805 19.91311 38976 ft 475 kts 143°
2026-04-25 17:42 45.52694 19.97317 38982 ft 481 kts 143°
2026-04-25 17:43 45.47533 20.03358 38981 ft 480 kts 143°
2026-04-25 17:43 45.42350 20.09407 38982 ft 480 kts 143°
2026-04-25 17:44 45.37208 20.15391 38982 ft 480 kts 143°
2026-04-25 17:44 45.32029 20.21404 38987 ft 480 kts 143°
2026-04-25 17:45 45.28578 20.25402 38987 ft 480 kts 143°